Regional Weather Roundup
Issued by NWS

Home | Current Version | Previous Version | Text Only | Print | Product List | Glossary On
Versions: 1 2 3 4 5 6 7 8 9 10 11 12 13 14 15 16 17 18 19 20 21 22 23 24 25 26 27 28 29 30 31 32 33 34 35 36 37 38 39 40 41 42 43 44 45 46 47 48 49 50
000
ASUS44 KLIX 211310
RWRLA
LOUISIANA WEATHER ROUNDUP
NATIONAL WEATHER SERVICE NEW ORLEANS LA
700 AM CST SUN DEC 21 2014

NOTE: "FAIR" INDICATES FEW OR NO CLOUDS BELOW 12,000 FEET WITH NO
      SIGNIFICANT WEATHER AND/OR OBSTRUCTIONS TO VISIBILITY.
      SKY/WX - SKY CONDITION AND SIGNIFICANT WEATHER.
      TMP - AIR TEMPERATURE.    DP   - DEWPOINT TEMPERATURE.
      RH  - RELATIVE HUMIDITY.  PRES - PRESSURE.
      HX  - HEAT INDEX.         WCI  - WIND CHILL INDEX.

*  THESE STATIONS ARE NOT NWS OR FAA STATIONS AND ARE NOT UNDER
   NWS QUALITY CONTROL.

LAZ040-048-061>063-065-066-069-211400-
SOUTHEAST LOUISIANA

CITY           SKY/WX    TMP DP  RH WIND       PRES   REMARKS
N.O. AUDUBON     N/A     52  49  90 MISG        N/A
N.O. INTL ARPT CLOUDY    52  47  83 E6        30.11R
N.O. LAKEFRONT CLOUDY    53  47  79 E8        30.11S
N.O. DOWNTOWN* FAIR      52  45  76 NE6       30.11S
SLIDELL        CLOUDY    49  46  90 N3        30.10S
BATON ROUGE    CLOUDY    47  44  90 NE5       30.12S
BOOTHVILLE     CLOUDY    55  53  93 NE6       30.09S
BELLE CHASSE   CLOUDY    52  48  86 NE6       30.10S
BOGALUSA*        N/A     46  43  87 N3        30.13F
GALLIANO*      CLOUDY    55  51  88 MISG      30.11R
NEW ROADS*     CLOUDY    46  44  92 CALM      30.13R
GONZALES*      CLOUDY    49  49 100 CALM      30.11S
HAMMOND*       NOT AVBL
HOUMA*         CLOUDY    52  48  87 N9        30.11R FOG
PORT FOURCHON* CLOUDY    55  52  88 NE10      30.13R

$$

LAZ041-044-053-054-211400-
SOUTHWEST LOUISIANA

CITY           SKY/WX    TMP DP  RH WIND       PRES   REMARKS
LAKE CHARLES   CLOUDY    45  44  97 NE5       30.12S FOG
LAFAYETTE      CLOUDY    48  46  93 NE3       30.12S FOG
PATTERSON      CLOUDY    52  46  82 NE7       30.12R
SALT POINT       N/A     53  49  86 CALM      30.10R
NEW IBERIA     CLOUDY    49  47  93 NE6       30.12S
CHENAULT AIRPK CLOUDY    45  43  93 CALM      30.13R

$$

LAZ027-028-211400-
CENTRAL LOUISIANA

CITY           SKY/WX    TMP DP  RH WIND       PRES   REMARKS
FORT POLK      CLEAR     39  38  98 NE2       30.13R
ALEXANDRIA INT CLEAR     35  35 100 CALM      30.14R
ALEXANDRIA     CLEAR     33  32  96 CALM      30.14R

$$

LAZ001-002-211400-
NORTHWEST LOUISIANA

CITY           SKY/WX    TMP DP  RH WIND       PRES   REMARKS
SHREVEPORT     PTCLDY    35  34  96 CALM      30.15S
BARKSDALE AFB  NOT AVBL
DTN SHREVEPORT CLEAR     33  32  96 NW3       30.16S FOG

$$

LAZ014-016-211400-
NORTHEAST LOUISIANA

CITY           SKY/WX    TMP DP  RH WIND       PRES   REMARKS
MONROE         CLEAR     36  36 100 CALM      30.17S
TALLULAH       CLEAR     35  33  92 NE5       30.16F WCI  31

$$




USA.gov is the U.S. government's official web portal to all federal, state and local government web resources and services.